Previsão horária em Juncewo

Hoje, 22 Junho, Terça-feira

Tempo Temperatura Precipitação Vento Pressão Humidade
00:00 +20°C° 0 mm 2 m/s 746 mmHg 93%
01:00 +20°C° 0 mm 2 m/s 746 mmHg 92%
02:00 +19°C° 0 mm 2 m/s 746 mmHg 92%
03:00 +19°C° 0 mm 2 m/s 746 mmHg 92%
04:00 +19°C° 0 mm 2 m/s 746 mmHg 92%
05:00 +20°C° 0.3 mm 2 m/s 747 mmHg 89%
06:00 +23°C° 0.3 mm 2 m/s 747 mmHg 85%
07:00 +24°C° 0.3 mm 1 m/s 747 mmHg 82%
08:00 +25°C° 0 mm 2 m/s 748 mmHg 77%
09:00 +26°C° 0 mm 3 m/s 748 mmHg 73%
10:00 +27°C° 0 mm 4 m/s 748 mmHg 69%
11:00 +27°C° 0.2 mm 4 m/s 748 mmHg 67%
12:00 +27°C° 0.2 mm 4 m/s 748 mmHg 65%
13:00 +28°C° 0.2 mm 4 m/s 749 mmHg 64%
14:00 +27°C° 0 mm 5 m/s 749 mmHg 66%
15:00 +26°C° 0 mm 5 m/s 749 mmHg 69%
16:00 +24°C° 0 mm 6 m/s 750 mmHg 71%
17:00 +23°C° 0.4 mm 5 m/s 750 mmHg 74%
18:00 +22°C° 0.4 mm 5 m/s 750 mmHg 78%
19:00 +20°C° 0.4 mm 5 m/s 751 mmHg 81%
20:00 +19°C° 0.2 mm 5 m/s 751 mmHg 81%
21:00 +18°C° 0.2 mm 4 m/s 751 mmHg 82%
22:00 +17°C° 0.2 mm 4 m/s 752 mmHg 82%
23:00 +15°C° 0 mm 4 m/s 752 mmHg 82%

Amanhã, 23 Junho, Quarta-feira

Tempo Temperatura Precipitação Vento Pressão Humidade
00:00 +16°C° 0 mm 3 m/s 752 mmHg 83%
01:00 +14°C° 0 mm 3 m/s 752 mmHg 83%
02:00 +14°C° 0 mm 3 m/s 752 mmHg 81%
03:00 +13°C° 0 mm 3 m/s 752 mmHg 79%
04:00 +13°C° 0 mm 3 m/s 752 mmHg 78%
05:00 +14°C° 0 mm 3 m/s 753 mmHg 75%
06:00 +16°C° 0 mm 3 m/s 753 mmHg 71%
07:00 +17°C° 0 mm 2 m/s 754 mmHg 68%
08:00 +18°C° 0 mm 3 m/s 754 mmHg 64%
09:00 +19°C° 0 mm 3 m/s 754 mmHg 59%
10:00 +20°C° 0 mm 3 m/s 754 mmHg 54%
11:00 +21°C° 0 mm 3 m/s 754 mmHg 53%
12:00 +23°C° 0 mm 2 m/s 754 mmHg 51%
13:00 +24°C° 0 mm 2 m/s 754 mmHg 50%
14:00 +24°C° 0.1 mm 1 m/s 754 mmHg 50%
15:00 +24°C° 0.1 mm 1 m/s 754 mmHg 50%
16:00 +25°C° 0.1 mm 1 m/s 754 mmHg 51%
17:00 +24°C° 0.1 mm 1 m/s 754 mmHg 56%
18:00 +23°C° 0.1 mm 1 m/s 754 mmHg 62%
19:00 +21°C° 0.1 mm 0 m/s 754 mmHg 67%
20:00 +22°C° 0.1 mm 1 m/s 754 mmHg 70%
21:00 +20°C° 0.1 mm 1 m/s 754 mmHg 73%
22:00 +18°C° 0.1 mm 2 m/s 754 mmHg 76%
23:00 +18°C° 0.1 mm 2 m/s 754 mmHg 80%

Depois de amanhã, 24 Junho, Quinta-feira

Tempo Temperatura Precipitação Vento Pressão Humidade
00:00 +17°C° 0.1 mm 2 m/s 754 mmHg 84%
01:00 +17°C° 0.1 mm 2 m/s 754 mmHg 89%
02:00 +17°C° 0 mm 2 m/s 754 mmHg 89%
03:00 +17°C° 0 mm 2 m/s 754 mmHg 89%
04:00 +17°C° 0 mm 2 m/s 754 mmHg 89%
05:00 +18°C° 0 mm 2 m/s 754 mmHg 87%
06:00 +18°C° 0 mm 2 m/s 754 mmHg 85%
07:00 +18°C° 0 mm 2 m/s 754 mmHg 83%
08:00 +20°C° 0 mm 2 m/s 754 mmHg 78%
09:00 +21°C° 0 mm 2 m/s 754 mmHg 73%
10:00 +23°C° 0 mm 2 m/s 754 mmHg 68%
11:00 +24°C° 0 mm 2 m/s 754 mmHg 65%
12:00 +25°C° 0 mm 2 m/s 754 mmHg 61%
13:00 +26°C° 0 mm 2 m/s 753 mmHg 58%
14:00 +27°C° 0 mm 2 m/s 753 mmHg 58%
15:00 +27°C° 0 mm 2 m/s 753 mmHg 57%
16:00 +27°C° 0 mm 2 m/s 753 mmHg 57%
17:00 +26°C° 0 mm 2 m/s 752 mmHg 62%
18:00 +25°C° 0 mm 2 m/s 752 mmHg 67%
19:00 +25°C° 0 mm 2 m/s 752 mmHg 72%
20:00 +23°C° 0 mm 2 m/s 752 mmHg 75%
21:00 +21°C° 0 mm 2 m/s 752 mmHg 78%
22:00 +20°C° 0 mm 3 m/s 751 mmHg 82%
23:00 +19°C° 0.2 mm 3 m/s 751 mmHg 85%

25 Junho, Sexta-feira

Tempo Temperatura Precipitação Vento Pressão Humidade
00:00 +18°C° 0.2 mm 3 m/s 751 mmHg 88%
01:00 +17°C° 0.2 mm 3 m/s 750 mmHg 91%
02:00 +17°C° 2.3 mm 3 m/s 750 mmHg 92%
03:00 +16°C° 2.3 mm 3 m/s 750 mmHg 92%
04:00 +15°C° 2.3 mm 4 m/s 750 mmHg 93%
05:00 +15°C° 1.6 mm 4 m/s 750 mmHg 93%
06:00 +15°C° 1.6 mm 4 m/s 750 mmHg 94%
07:00 +15°C° 1.6 mm 4 m/s 750 mmHg 94%
08:00 +15°C° 0.1 mm 4 m/s 750 mmHg 93%
09:00 +17°C° 0.1 mm 4 m/s 750 mmHg 93%
10:00 +17°C° 0.1 mm 4 m/s 751 mmHg 92%
11:00 +17°C° 0 mm 4 m/s 751 mmHg 89%
12:00 +17°C° 0 mm 5 m/s 751 mmHg 86%
13:00 +19°C° 0 mm 5 m/s 751 mmHg 83%
14:00 +19°C° 0 mm 4 m/s 752 mmHg 84%
15:00 +18°C° 0 mm 3 m/s 752 mmHg 85%
16:00 +18°C° 0 mm 2 m/s 752 mmHg 86%
17:00 +18°C° 0 mm 3 m/s 752 mmHg 86%
18:00 +18°C° 0 mm 3 m/s 752 mmHg 87%
19:00 +18°C° 0 mm 3 m/s 752 mmHg 87%
20:00 +17°C° 0 mm 4 m/s 752 mmHg 88%
21:00 +17°C° 0 mm 4 m/s 752 mmHg 90%
22:00 +15°C° 0 mm 4 m/s 752 mmHg 91%
23:00 +15°C° 0 mm 4 m/s 752 mmHg 91%

26 Junho, Sábado

Tempo Temperatura Precipitação Vento Pressão Humidade
00:00 +15°C° 0 mm 4 m/s 752 mmHg 92%
01:00 +15°C° 0 mm 4 m/s 752 mmHg 92%
02:00 +15°C° 0 mm 4 m/s 752 mmHg 92%
03:00 +15°C° 0 mm 4 m/s 752 mmHg 93%
04:00 +15°C° 0 mm 4 m/s 752 mmHg 93%
05:00 +15°C° 0 mm 4 m/s 752 mmHg 92%
06:00 +15°C° 0 mm 4 m/s 752 mmHg 90%
07:00 +15°C° 0 mm 4 m/s 753 mmHg 89%
08:00 +18°C° 0 mm 4 m/s 753 mmHg 84%
09:00 +19°C° 0 mm 5 m/s 753 mmHg 80%
10:00 +20°C° 0 mm 5 m/s 753 mmHg 75%
11:00 +21°C° 0.1 mm 5 m/s 753 mmHg 72%
12:00 +22°C° 0.1 mm 5 m/s 753 mmHg 69%
13:00 +22°C° 0.1 mm 5 m/s 752 mmHg 65%
14:00 +22°C° 0.3 mm 4 m/s 752 mmHg 66%
15:00 +22°C° 0.3 mm 4 m/s 752 mmHg 67%
16:00 +22°C° 0.3 mm 4 m/s 752 mmHg 69%
17:00 +21°C° 0.2 mm 3 m/s 752 mmHg 72%
18:00 +20°C° 0.2 mm 3 m/s 752 mmHg 76%
19:00 +19°C° 0.2 mm 3 m/s 752 mmHg 80%
20:00 +18°C° 0 mm 2 m/s 752 mmHg 82%
21:00 +18°C° 0 mm 1 m/s 753 mmHg 85%
22:00 +16°C° 0 mm 1 m/s 753 mmHg 87%
23:00 +16°C° 0 mm 1 m/s 753 mmHg 89%

27 Junho, Domingo

Tempo Temperatura Precipitação Vento Pressão Humidade
00:00 +15°C° 0 mm 1 m/s 753 mmHg 90%
01:00 +15°C° 0 mm 2 m/s 752 mmHg 91%
02:00 +15°C° 0 mm 2 m/s 753 mmHg 92%
03:00 +14°C° 0 mm 2 m/s 753 mmHg 93%
04:00 +14°C° 0 mm 2 m/s 753 mmHg 94%
05:00 +15°C° 0 mm 2 m/s 753 mmHg 89%
06:00 +17°C° 0 mm 2 m/s 753 mmHg 84%
07:00 +18°C° 0 mm 2 m/s 753 mmHg 78%
08:00 +19°C° 0 mm 3 m/s 753 mmHg 73%
09:00 +21°C° 0 mm 3 m/s 753 mmHg 68%
10:00 +22°C° 0 mm 3 m/s 753 mmHg 63%
11:00 +22°C° 0 mm 3 m/s 753 mmHg 61%
12:00 +24°C° 0 mm 3 m/s 753 mmHg 59%
13:00 +24°C° 0 mm 3 m/s 753 mmHg 58%
14:00 +24°C° 0 mm 3 m/s 753 mmHg 59%
15:00 +24°C° 0 mm 3 m/s 753 mmHg 60%
16:00 +24°C° 0 mm 3 m/s 753 mmHg 62%
17:00 +23°C° 0.1 mm 2 m/s 753 mmHg 66%
18:00 +23°C° 0.1 mm 2 m/s 753 mmHg 71%
19:00 +21°C° 0.1 mm 2 m/s 753 mmHg 75%
20:00 +20°C° 0 mm 2 m/s 753 mmHg 79%
21:00 +18°C° 0 mm 2 m/s 753 mmHg 83%
22:00 +17°C° 0 mm 2 m/s 753 mmHg 87%
23:00 +17°C° 0 mm 2 m/s 753 mmHg 89%
Mostrar mais

Necessitamos do seu Consentimento

A Meteoprog e os seus Fornecedores de Serviços podem armazenar e aceder a dados pessoais como cookies, identificadores do dispositivo ou outras tecnologias semelhantes existentes no seu dispositivo e processar estes dados para personalizar conteúdos e anúncios, assim como funcionalidades nas redes sociais e análise de tráfego.

  • Armazenar e/ou aceder a informações no seu dispositivo

    Os cookies, identificadores do dispositivo ou outras informações podem ser armazenados ou acedidos no seu dispositivo, para os fins acima indicados.

  • Anúncios e conteúdos personalizados, medição de anúncios e conteúdos, dados sobre o público-alvo e desenvolvimento de produtos

    Os anúncios e os conteúdos podem ser personalizados com base num perfil. Podem ser adicionados dados adicionais para uma maior personalização dos anúncios e dos conteúdos. A eficácia dos anúncios e dos conteúdos pode ser medida. Podem ser obtidas informações sobre o público que visualizou os anúncios e os conteúdos. Estes dados podem ser usados para desenvolver ou melhorar sistemas, softwares ou a experiência do utilizador.

Ao clicar em "Eu concordo”, permitirá o uso de cookies, identificadores do dispositivo e web beacons mencionados ou outras tecnologias semelhantes. As configurações do navegador do seu dispositivo podem ser alteradas.

Para certos fins, podem ser invocados interesses legítimos ao invés de consentimento. Pode ler mais informação sobre este assunto na nossa Política de Privacidade e Cookies.